sat.trackr.live / text

‹ back to catalog

STARLINK-37214

NORAD 68345 · 2026-059AA

PAYLOAD ACTIVE UNKNOWN

§ Identity

Operator
Country
US
Launch date
2026-03-22
Launch site
AFETR
Launch vehicle
Mass (kg)
RCS (m²)

Purposes: comms

External: N2YO · Heavens-Above · Gunter

§ Orbital elements

Epoch: 2026-09-19T23:20:24.480384Z

Period
93.85 min
Inclination
53.1584°
Eccentricity
0.0001747
Mean motion
15.34404657 rev/d
Perigee alt
461.5 km
Apogee alt
463.9 km
Semi-major
6,840.8 km
B*
4.3271e-4
RAAN
157.8403°
Arg perigee
87.6659°
Mean anomaly
272.4544°
Rev number
2,803

§ Raw data

STARLINK-372141 68345U 26059AA  26262.97250556  .00014273  00000+0  43271-3 0  99912 68345  53.1584 157.8403 0001747  87.6659 272.4544 15.34404657 28032

JSON: /api/v1/satellites/68345 · /tle

For live sub-satellite position, see the globe view (requires WebGL).

§ Visibility from observer

Set your observer location to see the next 7 days of passes ≥ 10°. The values pass through the URL so the page stays shareable.

No JS? Fill the form by hand. The geolocation button needs JavaScript.